RYR6142 EDDG-EGSS

Flight info

Callsign RYR6142
Flight time 1h 0m
Altitude 32000
Route RKN9Y RKN L980 IDRID M40 RINIS
Aircraft B738/M-SDE2E3FGHIRWXY/LB1

Departure

Time 2026-05-04 16:01
Airport Münster Osnabrück Airport (EDDG)

Arrival

Time 2026-05-04 17:01
Airport London Stansted Airport (EGSS)
Time Latitude Longitude Altitude Speed Heading
2026-05-04 15:21 52.13275 7.69210 167 ft 0 kts 161°
2026-05-04 15:57 52.13274 7.69210 167 ft 1 kts 161°
2026-05-04 15:57 52.13240 7.69233 167 ft 12 kts 148°
2026-05-04 15:58 52.13263 7.69319 167 ft 10 kts 339°
2026-05-04 15:58 52.13331 7.69279 167 ft 10 kts 343°
2026-05-04 15:58 52.13398 7.69245 167 ft 10 kts 340°
2026-05-04 15:58 52.13457 7.69279 167 ft 11 kts 57°
2026-05-04 15:59 52.13489 7.69417 167 ft 15 kts 78°
2026-05-04 15:59 52.13521 7.69580 167 ft 15 kts 65°
2026-05-04 15:59 52.13555 7.69736 167 ft 14 kts 71°
2026-05-04 15:59 52.13587 7.69886 167 ft 14 kts 72°
2026-05-04 16:00 52.13637 7.70010 167 ft 13 kts 32°
2026-05-04 16:00 52.13723 7.70022 167 ft 13 kts 341°
2026-05-04 16:00 52.13767 7.69918 167 ft 12 kts 257°
2026-05-04 16:00 52.13744 7.69800 167 ft 13 kts 252°
2026-05-04 16:01 52.13637 7.69299 168 ft 93 kts 251°
2026-05-04 16:01 52.13329 7.67852 257 ft 167 kts 251°
2026-05-04 16:01 52.12963 7.66064 1406 ft 166 kts 251°
2026-05-04 16:01 52.12541 7.64320 2528 ft 169 kts 244°
2026-05-04 16:02 52.11781 7.62698 3128 ft 194 kts 219°
2026-05-04 16:02 52.10516 7.61802 3455 ft 223 kts 184°
2026-05-04 16:02 52.07178 7.62445 4500 ft 258 kts 176°
2026-05-04 16:03 52.05354 7.62641 5359 ft 264 kts 179°
2026-05-04 16:03 52.03518 7.62698 6451 ft 264 kts 181°
2026-05-04 16:03 52.01666 7.62649 7407 ft 268 kts 183°
2026-05-04 16:03 51.99782 7.62522 8353 ft 273 kts 184°
2026-05-04 16:04 51.97870 7.62341 9314 ft 277 kts 185°
2026-05-04 16:04 51.93895 7.61870 10637 ft 306 kts 185°
2026-05-04 16:04 51.91688 7.61579 10996 ft 328 kts 186°
2026-05-04 16:05 51.89378 7.61268 11703 ft 337 kts 186°
2026-05-04 16:05 51.87062 7.60950 12575 ft 340 kts 186°
2026-05-04 16:05 51.82292 7.60287 14295 ft 347 kts 186°
2026-05-04 16:06 51.79878 7.59952 15139 ft 349 kts 186°
2026-05-04 16:06 51.73926 7.56533 17124 ft 354 kts 225°
2026-05-04 16:07 51.72213 7.51989 18063 ft 361 kts 251°
2026-05-04 16:07 51.72468 7.39701 19838 ft 376 kts 276°
2026-05-04 16:08 51.72860 7.35513 20427 ft 379 kts 276°
2026-05-04 16:08 51.74028 7.22785 22172 ft 386 kts 275°
2026-05-04 16:09 51.74774 7.14165 23281 ft 390 kts 274°
2026-05-04 16:09 51.75506 7.05459 24242 ft 394 kts 274°
2026-05-04 16:10 51.76237 6.96641 25112 ft 398 kts 274°
2026-05-04 16:11 51.77326 6.83361 26748 ft 394 kts 273°
2026-05-04 16:11 51.77682 6.78990 27345 ft 391 kts 273°
2026-05-04 16:12 51.78729 6.65964 28984 ft 388 kts 272°
2026-05-04 16:12 51.79749 6.53096 30552 ft 383 kts 272°
2026-05-04 16:13 51.80414 6.44612 31521 ft 378 kts 271°
2026-05-04 16:13 51.81068 6.36139 31952 ft 388 kts 271°
2026-05-04 16:14 51.81738 6.27304 31983 ft 405 kts 272°
2026-05-04 16:14 51.82434 6.18098 31983 ft 420 kts 272°
2026-05-04 16:16 51.84199 5.94571 31954 ft 418 kts 271°
2026-05-04 16:17 51.85894 5.71195 31953 ft 419 kts 271°
2026-05-04 16:18 51.86534 5.52563 31966 ft 417 kts 265°
2026-05-04 16:19 51.87252 5.29039 31970 ft 419 kts 269°
2026-05-04 16:20 51.89310 5.05543 31971 ft 428 kts 280°
2026-05-04 16:22 51.91946 4.82038 31959 ft 422 kts 271°
2026-05-04 16:23 51.93700 4.53632 31967 ft 423 kts 271°
2026-05-04 16:25 51.95404 4.25256 31970 ft 424 kts 270°
2026-05-04 16:26 51.97256 3.93039 31986 ft 424 kts 270°
2026-05-04 16:28 51.98563 3.69312 32003 ft 423 kts 270°
2026-05-04 16:29 51.98494 3.37073 32006 ft 407 kts 257°
2026-05-04 16:30 51.97144 3.23410 31650 ft 410 kts 257°
2026-05-04 16:31 51.96317 3.14405 30824 ft 399 kts 259°
2026-05-04 16:31 51.95714 3.04938 29863 ft 393 kts 260°
2026-05-04 16:32 51.94912 2.91924 28440 ft 380 kts 260°
2026-05-04 16:33 51.94357 2.83504 27542 ft 373 kts 260°
2026-05-04 16:33 51.93801 2.75220 26646 ft 366 kts 261°
2026-05-04 16:34 51.93248 2.67070 25782 ft 361 kts 261°
2026-05-04 16:34 51.92973 2.63045 25350 ft 359 kts 261°
2026-05-04 16:35 51.92149 2.51115 24096 ft 352 kts 261°
2026-05-04 16:35 51.91329 2.39372 22724 ft 347 kts 261°
2026-05-04 16:36 51.91055 2.35499 22279 ft 345 kts 261°
2026-05-04 16:36 51.90649 2.27878 21536 ft 340 kts 265°
2026-05-04 16:37 51.90505 2.20081 20850 ft 353 kts 266°
2026-05-04 16:37 51.90432 2.16100 20484 ft 352 kts 266°
2026-05-04 16:37 51.90261 2.08182 19769 ft 346 kts 266°
2026-05-04 16:38 51.90081 2.00727 19108 ft 343 kts 265°
2026-05-04 16:39 51.89932 1.89152 18012 ft 344 kts 278°
2026-05-04 16:39 51.91422 1.83175 17500 ft 342 kts 295°
2026-05-04 16:40 51.94058 1.75384 16790 ft 337 kts 296°
2026-05-04 16:40 51.95916 1.69872 16315 ft 340 kts 296°
2026-05-04 16:41 51.98126 1.63214 15721 ft 335 kts 296°
2026-05-04 16:41 52.01385 1.53287 14859 ft 331 kts 296°
2026-05-04 16:42 52.04535 1.43634 14014 ft 325 kts 296°
2026-05-04 16:43 52.06642 1.37153 13409 ft 323 kts 296°
2026-05-04 16:43 52.08727 1.30728 12825 ft 320 kts 296°
2026-05-04 16:43 52.09761 1.27536 12541 ft 318 kts 296°
2026-05-04 16:44 52.10882 1.14602 11607 ft 286 kts 254°
2026-05-04 16:45 52.09876 1.08736 11212 ft 282 kts 253°
2026-05-04 16:46 52.08299 0.99493 10618 ft 283 kts 254°
2026-05-04 16:46 52.07264 0.93351 10222 ft 280 kts 254°
2026-05-04 16:47 52.06240 0.87268 9812 ft 278 kts 254°
2026-05-04 16:47 52.05222 0.81231 9374 ft 275 kts 254°
2026-05-04 16:48 52.03707 0.72274 8787 ft 274 kts 254°
2026-05-04 16:48 52.03211 0.69350 8591 ft 269 kts 254°
2026-05-04 16:49 52.02237 0.63630 8203 ft 257 kts 254°
2026-05-04 16:49 52.01459 0.58086 7697 ft 254 kts 265°
2026-05-04 16:50 52.01348 0.52356 7257 ft 247 kts 267°
2026-05-04 16:50 52.01241 0.47771 6868 ft 235 kts 266°
2026-05-04 16:51 52.01004 0.42570 6337 ft 232 kts 263°
2026-05-04 16:51 52.00848 0.39976 6124 ft 232 kts 263°
2026-05-04 16:51 52.00539 0.34771 6036 ft 233 kts 264°
2026-05-04 16:52 52.00232 0.29567 6020 ft 230 kts 263°
2026-05-04 16:52 51.99778 0.27120 6021 ft 229 kts 237°
2026-05-04 16:53 51.97540 0.23320 6026 ft 237 kts 223°
2026-05-04 16:53 51.93725 0.17710 5155 ft 252 kts 223°
2026-05-04 16:54 51.92428 0.15785 4798 ft 254 kts 224°
2026-05-04 16:55 51.87193 0.07976 3375 ft 258 kts 224°
2026-05-04 16:55 51.84605 0.04049 3024 ft 246 kts 225°
2026-05-04 16:56 51.82264 0.00385 3034 ft 225 kts 225°
2026-05-04 16:56 51.78222 -0.02490 3014 ft 233 kts 159°
2026-05-04 16:57 51.76926 -0.01029 3028 ft 222 kts 136°
2026-05-04 16:57 51.76181 0.03301 2994 ft 199 kts 68°
2026-05-04 16:58 51.78604 0.08497 2939 ft 191 kts 44°
2026-05-04 16:58 51.79542 0.09988 2716 ft 188 kts 41°
2026-05-04 16:59 51.81443 0.12854 2246 ft 188 kts 41°
2026-05-04 17:00 51.84942 0.18127 1220 ft 149 kts 41°
2026-05-04 17:00 51.87098 0.21373 555 ft 138 kts 43°
2026-05-04 17:01 51.88435 0.23382 336 ft 109 kts 44°
2026-05-04 17:01 51.89045 0.24340 347 ft 29 kts 59°
2026-05-04 17:02 51.89167 0.24821 347 ft 16 kts 86°
2026-05-04 17:02 51.89206 0.25029 348 ft 13 kts 49°
2026-05-04 17:03 51.89240 0.25153 350 ft 12 kts 102°
2026-05-04 17:03 51.89198 0.25271 352 ft 12 kts 100°
2026-05-04 17:03 51.89303 0.25468 350 ft 12 kts 42°
2026-05-04 17:04 51.89416 0.25640 351 ft 10 kts 49°
2026-05-04 17:04 51.89417 0.25719 356 ft 2 kts 108°
2026-05-04 17:05 51.89408 0.25769 356 ft 0 kts 106°